When you browse on this site, cookies collect data to enhance your experience and personalize the content and advertising you see.
Visit our Privacy Policy to learn more. By continuing to use the site, you agree to this use of cookies and data.
  • In Czech Republic
  • List of Countries
  • For 7 days
  • Water Temperature
  • Satellite Maps
  • Weather Map
  • Weather Widgets
  • user-avatar
    Login

    Hourly Weather Al-Jadida

    Today, 25 June, Tuesday

    Time Temperature Precipitation Wind Pressure Humidity
    00:00 +20°C° 0 mm 2 mps 761 mmHg 95%
    01:00 +21°C° 0 mm 1 mps 761 mmHg 95%
    02:00 +20°C° 0 mm 1 mps 761 mmHg 95%
    03:00 +20°C° 0 mm 1 mps 761 mmHg 95%
    04:00 +18°C° 0 mm 0 mps 761 mmHg 95%
    05:00 +19°C° 0 mm 0 mps 761 mmHg 94%
    06:00 +22°C° 0 mm 1 mps 761 mmHg 85%
    07:00 +24°C° 0 mm 1 mps 761 mmHg 76%
    08:00 +25°C° 0 mm 1 mps 761 mmHg 67%
    09:00 +26°C° 0 mm 2 mps 761 mmHg 64%
    10:00 +27°C° 0 mm 3 mps 761 mmHg 61%
    11:00 +28°C° 0 mm 3 mps 760 mmHg 58%
    12:00 +28°C° 0 mm 4 mps 760 mmHg 58%
    13:00 +28°C° 0 mm 4 mps 760 mmHg 58%
    14:00 +28°C° 0 mm 4 mps 760 mmHg 58%
    15:00 +27°C° 0 mm 4 mps 760 mmHg 62%
    16:00 +27°C° 0 mm 4 mps 760 mmHg 65%
    17:00 +26°C° 0 mm 4 mps 760 mmHg 69%
    18:00 +25°C° 0 mm 3 mps 761 mmHg 75%
    19:00 +24°C° 0 mm 2 mps 761 mmHg 82%
    20:00 +23°C° 0 mm 1 mps 762 mmHg 89%
    21:00 +22°C° 0 mm 1 mps 762 mmHg 90%
    22:00 +22°C° 0 mm 1 mps 762 mmHg 91%
    23:00 +22°C° 0 mm 1 mps 762 mmHg 92%

    Tomorrow, 26 June, Wednesday

    Time Temperature Precipitation Wind Pressure Humidity
    00:00 +22°C° 0 mm 1 mps 762 mmHg 93%
    01:00 +21°C° 0 mm 1 mps 762 mmHg 93%
    02:00 +21°C° 0 mm 1 mps 761 mmHg 93%
    03:00 +21°C° 0 mm 1 mps 761 mmHg 93%
    04:00 +21°C° 0 mm 1 mps 761 mmHg 93%
    05:00 +21°C° 0 mm 1 mps 762 mmHg 93%
    06:00 +23°C° 0 mm 2 mps 762 mmHg 85%
    07:00 +24°C° 0 mm 2 mps 762 mmHg 77%
    08:00 +25°C° 0 mm 2 mps 762 mmHg 69%
    09:00 +26°C° 0 mm 2 mps 762 mmHg 66%
    10:00 +27°C° 0 mm 3 mps 762 mmHg 63%
    11:00 +28°C° 0 mm 4 mps 762 mmHg 61%
    12:00 +27°C° 0 mm 5 mps 762 mmHg 62%
    13:00 +27°C° 0 mm 5 mps 761 mmHg 64%
    14:00 +27°C° 0 mm 6 mps 761 mmHg 65%
    15:00 +26°C° 0 mm 6 mps 761 mmHg 68%
    16:00 +26°C° 0 mm 6 mps 761 mmHg 71%
    17:00 +24°C° 0 mm 6 mps 761 mmHg 74%
    18:00 +23°C° 0 mm 6 mps 762 mmHg 78%
    19:00 +22°C° 0 mm 5 mps 762 mmHg 82%
    20:00 +21°C° 0 mm 4 mps 763 mmHg 86%
    21:00 +21°C° 0 mm 4 mps 763 mmHg 88%
    22:00 +21°C° 0 mm 3 mps 763 mmHg 89%
    23:00 +21°C° 0 mm 3 mps 763 mmHg 91%

    Day after tomorrow, 27 June, Thursday

    Time Temperature Precipitation Wind Pressure Humidity
    00:00 +20°C° 0 mm 3 mps 762 mmHg 92%
    01:00 +20°C° 0 mm 4 mps 762 mmHg 92%
    02:00 +20°C° 0 mm 4 mps 762 mmHg 93%
    03:00 +20°C° 0 mm 4 mps 762 mmHg 91%
    04:00 +20°C° 0 mm 4 mps 762 mmHg 89%
    05:00 +21°C° 0 mm 5 mps 762 mmHg 87%
    06:00 +21°C° 0 mm 5 mps 762 mmHg 82%
    07:00 +22°C° 0 mm 5 mps 762 mmHg 78%
    08:00 +22°C° 0 mm 6 mps 762 mmHg 73%
    09:00 +23°C° 0 mm 6 mps 762 mmHg 68%
    10:00 +24°C° 0 mm 6 mps 762 mmHg 63%
    11:00 +26°C° 0 mm 7 mps 762 mmHg 58%
    12:00 +26°C° 0 mm 7 mps 762 mmHg 58%
    13:00 +26°C° 0 mm 7 mps 761 mmHg 57%
    14:00 +26°C° 0 mm 8 mps 761 mmHg 57%
    15:00 +24°C° 0 mm 7 mps 761 mmHg 59%
    16:00 +24°C° 0 mm 7 mps 761 mmHg 62%
    17:00 +23°C° 0 mm 7 mps 761 mmHg 64%
    18:00 +22°C° 0 mm 7 mps 761 mmHg 69%
    19:00 +21°C° 0 mm 6 mps 762 mmHg 73%
    20:00 +21°C° 0 mm 6 mps 762 mmHg 78%
    21:00 +20°C° 0 mm 6 mps 762 mmHg 80%
    22:00 +20°C° 0 mm 5 mps 762 mmHg 82%
    23:00 +20°C° 0 mm 5 mps 762 mmHg 84%

    28 June, Friday

    Time Temperature Precipitation Wind Pressure Humidity
    00:00 +20°C° 0 mm 5 mps 761 mmHg 85%
    01:00 +20°C° 0 mm 5 mps 761 mmHg 87%
    02:00 +20°C° 0 mm 5 mps 760 mmHg 88%
    03:00 +20°C° 0 mm 5 mps 760 mmHg 88%
    04:00 +20°C° 0 mm 5 mps 760 mmHg 88%
    05:00 +20°C° 0 mm 5 mps 760 mmHg 87%
    06:00 +21°C° 0 mm 5 mps 760 mmHg 80%
    07:00 +22°C° 0 mm 5 mps 759 mmHg 73%
    08:00 +23°C° 0 mm 6 mps 759 mmHg 66%
    09:00 +24°C° 0 mm 6 mps 759 mmHg 64%
    10:00 +24°C° 0 mm 6 mps 759 mmHg 63%
    11:00 +26°C° 0 mm 6 mps 759 mmHg 62%
    12:00 +26°C° 0 mm 6 mps 759 mmHg 62%
    13:00 +26°C° 0 mm 7 mps 758 mmHg 62%
    14:00 +26°C° 0 mm 7 mps 758 mmHg 62%
    15:00 +24°C° 0 mm 6 mps 758 mmHg 65%
    16:00 +24°C° 0 mm 6 mps 758 mmHg 68%
    17:00 +23°C° 0 mm 6 mps 759 mmHg 70%
    18:00 +22°C° 0 mm 6 mps 759 mmHg 75%
    19:00 +21°C° 0 mm 5 mps 760 mmHg 80%
    20:00 +21°C° 0 mm 5 mps 760 mmHg 84%
    21:00 +20°C° 0 mm 4 mps 760 mmHg 86%
    22:00 +20°C° 0 mm 3 mps 760 mmHg 87%
    23:00 +20°C° 0 mm 3 mps 760 mmHg 89%

    29 June, Saturday

    Time Temperature Precipitation Wind Pressure Humidity
    00:00 +19°C° 0 mm 2 mps 760 mmHg 89%
    01:00 +19°C° 0 mm 2 mps 759 mmHg 89%
    02:00 +19°C° 0 mm 2 mps 759 mmHg 89%
    03:00 +19°C° 0 mm 2 mps 759 mmHg 88%
    04:00 +20°C° 0 mm 3 mps 759 mmHg 86%
    05:00 +20°C° 0 mm 3 mps 758 mmHg 85%
    06:00 +21°C° 0 mm 3 mps 759 mmHg 78%
    07:00 +22°C° 0 mm 3 mps 759 mmHg 71%
    08:00 +23°C° 0 mm 4 mps 759 mmHg 65%
    09:00 +25°C° 0 mm 4 mps 759 mmHg 63%
    10:00 +25°C° 0 mm 5 mps 759 mmHg 62%
    11:00 +26°C° 0 mm 5 mps 758 mmHg 60%
    12:00 +26°C° 0 mm 5 mps 758 mmHg 61%
    13:00 +26°C° 0 mm 5 mps 758 mmHg 62%
    14:00 +26°C° 0 mm 5 mps 758 mmHg 63%
    15:00 +24°C° 0 mm 6 mps 758 mmHg 66%
    16:00 +24°C° 0 mm 6 mps 758 mmHg 68%
    17:00 +23°C° 0 mm 6 mps 758 mmHg 71%
    18:00 +22°C° 0 mm 5 mps 759 mmHg 76%
    19:00 +21°C° 0 mm 4 mps 759 mmHg 81%
    20:00 +20°C° 0 mm 4 mps 760 mmHg 86%
    21:00 +20°C° 0 mm 4 mps 760 mmHg 87%
    22:00 +20°C° 0 mm 3 mps 760 mmHg 89%
    23:00 +20°C° 0 mm 3 mps 760 mmHg 90%

    30 June, Sunday

    Time Temperature Precipitation Wind Pressure Humidity
    00:00 +20°C° 0 mm 3 mps 760 mmHg 87%
    01:00 +20°C° 0 mm 2 mps 760 mmHg 85%
    02:00 +21°C° 0 mm 2 mps 759 mmHg 82%
    03:00 +21°C° 0 mm 2 mps 760 mmHg 81%
    04:00 +21°C° 0 mm 2 mps 760 mmHg 80%
    05:00 +21°C° 0 mm 3 mps 760 mmHg 79%
    06:00 +21°C° 0 mm 3 mps 760 mmHg 74%
    07:00 +22°C° 0 mm 4 mps 761 mmHg 70%
    08:00 +23°C° 0 mm 4 mps 761 mmHg 65%
    09:00 +25°C° 0 mm 4 mps 761 mmHg 63%
    10:00 +26°C° 0 mm 5 mps 761 mmHg 61%
    11:00 +26°C° 0 mm 5 mps 761 mmHg 59%
    12:00 +26°C° 0 mm 5 mps 761 mmHg 60%
    13:00 +26°C° 0 mm 6 mps 760 mmHg 61%
    14:00 +26°C° 0 mm 6 mps 760 mmHg 62%
    15:00 +24°C° 0 mm 6 mps 760 mmHg 65%
    16:00 +25°C° 0 mm 5 mps 760 mmHg 68%
    17:00 +23°C° 0 mm 5 mps 760 mmHg 70%
    18:00 +22°C° 0 mm 4 mps 761 mmHg 73%
    19:00 +22°C° 0 mm 4 mps 761 mmHg 76%
    20:00 +21°C° 0 mm 3 mps 762 mmHg 79%
    21:00 +21°C° 0 mm 3 mps 762 mmHg 80%
    22:00 +20°C° 0 mm 2 mps 762 mmHg 81%
    23:00 +20°C° 0 mm 2 mps 762 mmHg 82%
    Show more